Wind_Speed
38 29 32 33 33 31 31 33 34 31 27 26 30 31 27 27 25 24 25 30 29 29 39 31 30 29 32 28 35 40 42 43 45 46 48 47 41 33
35 35 36 33 34 34 35 36 34 33 28 28 30 30 30 28 24 26 28 32 31 32 34 32 37 32 30 28 32 39 42 41 42 42 47 52 46 35
43 44 41 37 37 37 39 39 35 34 32 30 28 31 30 32 29 27 30 32 32 35 36 38 32 32 34 34 36 38 38 40 42 39 40 41 44 42
45 46 44 44 44 41 40 41 39 36 36 33 31 31 31 32 33 31 30 33 33 35 35 32 34 34 34 34 36 38 40 41 40 38 38 35 34 39
47 48 48 49 46 46 44 45 42 40 38 36 33 32 32 33 33 33 31 34 33 30 33 31 32 33 33 34 37 40 41 38 39 38 36 35 33 34
49 49 50 51 52 50 47 46 45 44 41 38 35 34 32 33 34 33 33 31 33 35 32 33 33 38 38 37 37 38 36 36 36 33 32 33 29 27
54 53 52 51 54 54 49 47 47 46 43 39 37 36 34 34 36 35 34 31 32 35 34 30 33 34 38 38 37 36 35 35 34 29 26 25 27 27
47 50 51 52 51 52 47 50 48 46 44 41 38 38 34 35 36 37 36 34 31 34 36 36 37 37 41 40 39 36 35 37 32 29 30 29 28 29
49 50 46 49 48 49 49 50 50 47 46 42 40 38 37 37 38 37 37 36 32 33 37 39 40 46 45 41 41 40 36 38 35 32 32 32 33 35
51 53 49 47 48 46 50 53 50 41 42 42 41 40 39 38 39 39 39 38 36 32 37 40 42 42 41 39 39 37 33 33 34 34 34 35 36 39
50 51 50 48 46 45 47 47 47 45 45 43 42 41 40 40 40 40 38 40 37 33 36 41 43 42 39 37 38 39 38 35 36 36 37 40 41 43
51 50 48 48 46 48 45 44 45 39 42 44 43 43 40 42 41 40 39 39 37 36 35 37 38 34 34 34 33 33 37 39 37 38 39 42 43 45
50 52 50 47 44 47 49 47 37 46 53 43 45 44 41 42 41 42 39 40 38 35 33 38 40 37 37 39 38 35 35 37 39 41 43 45 47 48
41 49 50 47 46 43 43 45 45 46 49 48 47 46 42 42 41 42 40 40 38 35 32 38 40 38 38 32 29 29 34 35 37 41 44 48 49 50
45 44 45 48 49 46 47 52 46 46 50 49 46 43 43 43 43 42 41 40 39 38 37 35 35 38 39 36 34 36 37 38 40 42 43 47 49 51
42 44 42 45 44 45 48 47 54 46 45 47 47 47 47 45 44 43 44 42 40 39 39 39 39 40 39 40 41 42 42 42 42 47 52 53 54 54
42 42 45 45 45 49 47 45 42 42 47 48 51 49 49 45 45 45 45 44 43 43 43 43 42 42 44 45 45 47 49 49 53 55 52 53 54 56
43 40 42 47 43 45 51 51 48 45 47 58 54 49 51 50 47 45 46 46 46 47 46 46 47 45 46 47 48 49 50 53 58 55 54 56 59 62
45 43 41 47 49 49 47 49 52 55 56 50 54 53 53 50 45 51 49 47 48 50 50 51 53 54 50 50 49 46 49 53 57 61 62 64 65 66
46 45 48 50 47 49 43 43 43 51 49 57 49 58 53 53 49 49 52 51 51 52 49 50 49 52 54 54 53 54 56 57 60 64 66 68 69 71
49 50 53 56 56 49 47 49 51 53 54 56 57 57 56 54 48 52 51 51 52 50 51 49 52 54 54 55 56 59 63 67 68 69 71 71 70 66
50 46 47 51 50 49 47 49 49 49 45 47 47 50 51 54 55 51 51 53 54 54 56 55 58 61 63 64 65 67 69 69 68 69 68 63 57 56
16 35 40 51 53 49 47 50 48 48 51 49 51 50 49 55 55 52 55 58 60 62 63 63 65 67 66 67 65 65 65 66 65 57 54 53 56 59
Wind_Direction
254 246 251 255 254 263 267 269 272 275 268 264 274 281 289 294 289 281 270 263 267 268 263 252 251 267 259 255 247 250 255 256 260 261 263 265 269 266
264 260 255 255 259 262 269 269 268 271 269 263 267 276 285 288 286 279 275 269 270 266 267 263 254 260 258 257 256 255 262 266 273 275 269 267 272 270
267 262 257 256 257 261 266 269 266 265 268 262 261 269 274 282 284 282 279 275 266 269 267 271 253 251 258 259 260 261 267 273 279 283 278 276 275 273
263 262 262 261 260 259 263 267 264 259 264 264 261 263 268 274 281 282 277 275 268 270 272 275 247 255 260 261 260 263 268 273 279 279 276 272 271 270
268 267 265 261 263 263 261 262 262 258 258 263 261 261 264 271 278 278 279 282 266 266 261 262 263 265 261 264 264 264 267 272 271 274 275 259 252 254
271 268 268 265 258 262 256 258 260 258 256 261 261 258 264 267 274 277 274 281 263 258 265 260 262 260 263 263 263 266 265 263 268 269 268 259 260 261
267 268 268 266 258 255 254 255 255 255 256 259 261 257 259 265 269 273 272 279 270 259 262 267 261 257 261 263 266 264 259 256 264 265 259 255 257 260
266 264 265 264 259 253 251 252 254 255 256 256 258 257 258 261 266 270 273 273 277 263 261 261 266 262 261 261 264 257 257 253 251 255 256 262 263 267
270 270 264 258 254 251 247 247 247 251 256 254 256 257 255 259 261 269 270 271 276 266 260 261 258 262 267 258 257 257 257 248 247 251 257 259 264 269
262 263 262 260 252 251 244 248 248 247 255 256 254 254 256 257 259 263 268 271 272 274 262 263 261 268 266 256 250 253 251 244 245 253 257 257 265 273
257 254 255 256 250 248 248 248 249 245 251 252 253 255 256 256 259 261 268 265 266 271 271 268 262 267 259 256 255 255 252 251 257 255 254 259 268 275
253 250 251 252 248 244 247 242 245 249 253 247 250 254 256 256 258 261 264 267 265 266 275 266 263 255 259 260 260 261 255 252 255 256 258 264 271 277
255 253 248 250 247 244 245 251 245 248 251 248 256 256 256 256 256 260 261 264 264 266 267 267 255 255 263 260 261 262 256 254 257 259 263 270 274 275
264 254 253 247 241 245 246 243 240 245 240 256 255 254 256 256 254 259 257 257 258 259 254 249 255 260 259 254 259 259 259 262 263 264 266 269 272 275
263 263 252 246 244 242 244 254 230 247 249 253 252 254 254 254 253 255 253 254 251 251 252 254 262 254 261 260 260 261 261 263 265 268 268 272 273 272
265 254 257 244 239 244 239 233 240 245 248 248 246 251 254 254 252 254 251 248 249 247 246 248 251 257 258 261 263 262 262 266 266 264 266 271 272 272
258 253 246 244 243 241 236 242 237 248 249 250 250 252 253 256 253 254 249 248 248 248 249 249 252 256 257 258 262 265 267 268 264 267 267 269 271 273
245 245 240 233 234 240 238 247 248 248 242 245 248 249 249 252 252 255 250 245 249 251 252 254 257 258 259 263 264 264 264 263 264 264 267 270 273 275
235 229 234 223 231 233 236 242 248 250 249 247 252 241 244 249 249 250 255 253 250 253 253 255 258 259 255 263 261 263 262 262 263 262 267 270 273 274
234 230 227 228 232 237 237 237 243 248 250 249 252 248 249 249 251 252 255 251 250 254 258 263 260 258 254 254 259 257 257 262 263 264 268 271 272 273
238 229 229 233 242 237 235 237 235 236 242 245 244 247 246 242 253 253 254 250 249 254 261 264 261 261 263 259 261 262 263 265 267 266 266 268 271 275
244 237 234 234 231 235 236 234 233 238 241 244 246 243 243 250 252 252 251 248 244 251 259 261 262 264 266 261 263 267 268 266 264 264 265 271 279 284
268 248 238 232 233 238 235 230 227 233 233 236 236 242 246 238 246 252 247 245 247 250 252 256 260 262 264 266 264 261 259 260 264 270 275 280 284 288
Height
5723 5725 5729 5732 5731 5730 5732 5733 5733 5734 5734 5735 5733 5731 5731 5731 5728 5727 5727 5728 5729 5729 5729 5727 5728 5729 5730 5730 5732 5734 5735 5736 5736 5736 5735 5736 5737 5740
5715 5717 5721 5722 5721 5722 5723 5725 5726 5725 5725 5726 5726 5725 5723 5724 5722 5721 5722 5722 5721 5722 5721 5720 5720 5721 5722 5723 5725 5727 5726 5726 5726 5726 5726 5726 5728 5729
5707 5710 5710 5710 5710 5713 5713 5715 5717 5716 5716 5717 5718 5717 5717 5715 5714 5714 5714 5714 5714 5714 5712 5712 5711 5713 5715 5716 5717 5718 5718 5718 5717 5717 5716 5716 5718 5719
5696 5697 5698 5700 5700 5702 5703 5706 5706 5707 5706 5708 5708 5709 5709 5708 5707 5706 5706 5705 5705 5706 5705 5703 5703 5704 5706 5707 5708 5710 5709 5709 5708 5707 5707 5707 5707 5708
5684 5684 5686 5687 5689 5690 5693 5695 5695 5696 5696 5697 5699 5700 5700 5700 5699 5698 5697 5696 5696 5697 5696 5695 5697 5697 5698 5699 5700 5700 5700 5700 5699 5698 5697 5697 5697 5698
5671 5672 5673 5673 5676 5678 5681 5682 5683 5685 5686 5687 5689 5690 5691 5692 5690 5690 5688 5687 5687 5688 5688 5689 5689 5689 5689 5690 5690 5691 5691 5690 5690 5690 5689 5689 5690 5691
5658 5659 5660 5661 5663 5664 5667 5668 5671 5674 5675 5676 5679 5680 5681 5682 5681 5680 5680 5678 5677 5679 5680 5680 5680 5681 5681 5681 5681 5681 5682 5682 5682 5682 5681 5682 5682 5683
5645 5645 5646 5647 5647 5650 5653 5655 5660 5661 5663 5665 5667 5669 5671 5671 5671 5669 5670 5669 5668 5669 5670 5671 5672 5670 5671 5671 5671 5672 5672 5671 5673 5675 5675 5675 5676 5676
5630 5631 5632 5632 5633 5636 5640 5642 5645 5648 5651 5653 5656 5658 5659 5660 5659 5661 5660 5660 5660 5659 5660 5660 5662 5661 5660 5661 5662 5663 5663 5663 5664 5665 5667 5668 5668 5668
5615 5616 5617 5619 5620 5622 5626 5628 5631 5635 5637 5641 5644 5645 5648 5648 5649 5650 5650 5650 5650 5648 5649 5651 5651 5651 5650 5651 5652 5653 5654 5655 5656 5657 5658 5659 5659 5658
5600 5601 5604 5605 5608 5610 5613 5615 5619 5622 5627 5629 5632 5634 5636 5637 5638 5639 5641 5640 5640 5640 5639 5640 5641 5641 5640 5642 5643 5644 5645 5645 5647 5648 5648 5649 5649 5648
5584 5587 5589 5592 5594 5597 5600 5604 5606 5612 5614 5616 5619 5621 5624 5626 5627 5628 5629 5629 5630 5630 5630 5629 5630 5631 5632 5633 5634 5634 5635 5636 5637 5639 5639 5639 5638 5637
5572 5574 5577 5578 5581 5583 5587 5591 5594 5599 5599 5602 5607 5609 5612 5614 5615 5616 5618 5618 5619 5620 5620 5619 5620 5622 5623 5625 5625 5625 5625 5626 5628 5628 5628 5628 5626 5625
5559 5560 5562 5565 5568 5571 5575 5579 5584 5586 5587 5592 5595 5598 5600 5602 5604 5605 5606 5608 5608 5610 5610 5611 5612 5612 5614 5613 5615 5616 5616 5617 5618 5618 5618 5616 5615 5613
5546 5547 5548 5551 5555 5559 5562 5563 5567 5573 5576 5580 5583 5585 5588 5590 5592 5594 5595 5597 5598 5599 5600 5601 5602 5603 5603 5604 5605 5606 5607 5607 5606 5606 5605 5604 5602 5600
5534 5535 5536 5539 5541 5547 5549 5553 5557 5561 5563 5566 5570 5572 5575 5578 5580 5582 5584 5586 5587 5588 5590 5591 5592 5592 5592 5594 5595 5595 5596 5595 5594 5594 5592 5590 5588 5586
5520 5522 5523 5527 5531 5534 5537 5539 5540 5547 5550 5553 5556 5559 5562 5565 5567 5570 5572 5574 5576 5577 5579 5580 5581 5581 5582 5582 5582 5582 5583 5582 5581 5579 5578 5576 5574 5572
5504 5507 5510 5514 5517 5521 5524 5526 5530 5533 5535 5538 5541 5544 5547 5551 5554 5556 5558 5561 5563 5564 5566 5568 5569 5568 5569 5570 5570 5568 5568 5567 5566 5565 5563 5561 5559 5557
5489 5493 5497 5501 5505 5508 5510 5513 5516 5518 5522 5525 5528 5530 5534 5537 5540 5543 5545 5547 5549 5551 5552 5554 5554 5555 5556 5556 5555 5555 5554 5553 5551 5549 5547 5545 5543 5540
5476 5478 5483 5487 5490 5492 5496 5500 5504 5507 5510 5513 5515 5518 5520 5523 5526 5528 5531 5532 5535 5536 5538 5539 5538 5539 5540 5540 5540 5539 5538 5537 5535 5533 5531 5528 5526 5522
5460 5465 5469 5472 5475 5479 5482 5485 5489 5492 5494 5497 5499 5502 5505 5509 5511 5514 5516 5519 5521 5522 5523 5524 5525 5525 5525 5525 5525 5524 5522 5520 5517 5515 5513 5511 5508 5505
5446 5449 5452 5456 5459 5464 5467 5471 5474 5477 5480 5482 5485 5488 5491 5494 5496 5498 5501 5504 5506 5507 5508 5508 5509 5508 5508 5508 5507 5506 5504 5501 5500 5498 5496 5493 5490 5487
5436 5437 5439 5441 5445 5449 5452 5456 5459 5463 5467 5470 5473 5475 5476 5479 5481 5483 5486 5488 5489 5490 5490 5490 5490 5490 5491 5491 5490 5488 5487 5485 5483 5482 5479 5476 5473 5470